When you browse on this site, cookies collect data to enhance your experience and personalize the content and advertising you see.
Visit our Privacy Policy to learn more. By continuing to use the site, you agree to this use of cookies and data.
  • In Lithuania
  • List of Countries
  • For 7 days
  • Water Temperature
  • Satellite Maps
  • Weather Map
  • Weather Widgets
  • user-avatar
    Login

    Hourly Weather Cheryumkin

    Today, 21 April, Sunday

    Time Temperature Precipitation Wind Pressure Humidity
    00:00 +5°C° 0 mm 3 mps 768 mmHg 53%
    01:00 +5°C° 0 mm 3 mps 768 mmHg 53%
    02:00 +4°C° 0 mm 3 mps 767 mmHg 54%
    03:00 +4°C° 0 mm 3 mps 767 mmHg 54%
    04:00 +4°C° 0 mm 3 mps 767 mmHg 55%
    05:00 +3°C° 0 mm 3 mps 768 mmHg 57%
    06:00 +3°C° 0 mm 3 mps 768 mmHg 58%
    07:00 +5°C° 0 mm 4 mps 768 mmHg 54%
    08:00 +7°C° 0 mm 4 mps 768 mmHg 49%
    09:00 +9°C° 0 mm 5 mps 768 mmHg 45%
    10:00 +12°C° 0 mm 5 mps 768 mmHg 41%
    11:00 +13°C° 0 mm 6 mps 768 mmHg 36%
    12:00 +14°C° 0 mm 6 mps 767 mmHg 32%
    13:00 +14°C° 0 mm 6 mps 767 mmHg 33%
    14:00 +15°C° 0 mm 6 mps 767 mmHg 33%
    15:00 +15°C° 0 mm 6 mps 767 mmHg 33%
    16:00 +14°C° 0 mm 5 mps 767 mmHg 37%
    17:00 +14°C° 0 mm 5 mps 767 mmHg 41%
    18:00 +13°C° 0 mm 4 mps 767 mmHg 44%
    19:00 +12°C° 0 mm 4 mps 767 mmHg 46%
    20:00 +11°C° 0 mm 4 mps 767 mmHg 47%
    21:00 +8°C° 0 mm 4 mps 767 mmHg 48%
    22:00 +8°C° 0 mm 4 mps 767 mmHg 49%
    23:00 +7°C° 0 mm 4 mps 768 mmHg 51%

    Tomorrow, 22 April, Monday

    Time Temperature Precipitation Wind Pressure Humidity
    00:00 +7°C° 0 mm 3 mps 768 mmHg 52%
    01:00 +7°C° 0 mm 3 mps 768 mmHg 54%
    02:00 +7°C° 0 mm 3 mps 768 mmHg 55%
    03:00 +5°C° 0 mm 3 mps 768 mmHg 56%
    04:00 +5°C° 0 mm 3 mps 768 mmHg 57%
    05:00 +5°C° 0 mm 3 mps 768 mmHg 59%
    06:00 +4°C° 0 mm 3 mps 768 mmHg 60%
    07:00 +7°C° 0 mm 4 mps 768 mmHg 55%
    08:00 +10°C° 0 mm 4 mps 768 mmHg 50%
    09:00 +12°C° 0 mm 5 mps 768 mmHg 44%
    10:00 +13°C° 0 mm 5 mps 768 mmHg 41%
    11:00 +14°C° 0 mm 5 mps 768 mmHg 37%
    12:00 +15°C° 0 mm 5 mps 768 mmHg 33%
    13:00 +16°C° 0 mm 5 mps 768 mmHg 33%
    14:00 +16°C° 0 mm 5 mps 768 mmHg 33%
    15:00 +17°C° 0 mm 4 mps 768 mmHg 33%
    16:00 +17°C° 0 mm 4 mps 768 mmHg 37%
    17:00 +16°C° 0 mm 3 mps 768 mmHg 40%
    18:00 +16°C° 0 mm 3 mps 768 mmHg 44%
    19:00 +13°C° 0 mm 3 mps 768 mmHg 45%
    20:00 +12°C° 0 mm 3 mps 768 mmHg 47%
    21:00 +12°C° 0 mm 2 mps 769 mmHg 48%
    22:00 +10°C° 0 mm 2 mps 769 mmHg 49%
    23:00 +9°C° 0 mm 2 mps 769 mmHg 50%

    Day after tomorrow, 23 April, Tuesday

    Time Temperature Precipitation Wind Pressure Humidity
    00:00 +9°C° 0 mm 2 mps 769 mmHg 51%
    01:00 +8°C° 0 mm 2 mps 770 mmHg 52%
    02:00 +8°C° 0 mm 2 mps 770 mmHg 52%
    03:00 +7°C° 0 mm 2 mps 770 mmHg 53%
    04:00 +8°C° 0 mm 1 mps 770 mmHg 54%
    05:00 +8°C° 0 mm 1 mps 770 mmHg 56%
    06:00 +8°C° 0 mm 1 mps 770 mmHg 57%
    07:00 +10°C° 0 mm 1 mps 771 mmHg 52%
    08:00 +12°C° 0 mm 2 mps 771 mmHg 48%
    09:00 +14°C° 0 mm 2 mps 771 mmHg 44%
    10:00 +15°C° 0 mm 2 mps 771 mmHg 42%
    11:00 +16°C° 0 mm 2 mps 771 mmHg 40%
    12:00 +16°C° 0 mm 2 mps 771 mmHg 37%
    13:00 +16°C° 0 mm 2 mps 771 mmHg 38%
    14:00 +16°C° 0 mm 2 mps 771 mmHg 39%
    15:00 +16°C° 0 mm 2 mps 771 mmHg 40%
    16:00 +16°C° 0 mm 2 mps 771 mmHg 43%
    17:00 +16°C° 0 mm 2 mps 771 mmHg 46%
    18:00 +15°C° 0 mm 2 mps 771 mmHg 49%
    19:00 +14°C° 0 mm 2 mps 771 mmHg 50%
    20:00 +13°C° 0 mm 2 mps 771 mmHg 51%
    21:00 +12°C° 0 mm 2 mps 772 mmHg 52%
    22:00 +12°C° 0 mm 1 mps 772 mmHg 52%
    23:00 +12°C° 0 mm 1 mps 772 mmHg 52%

    24 April, Wednesday

    Time Temperature Precipitation Wind Pressure Humidity
    00:00 +12°C° 0 mm 1 mps 772 mmHg 51%
    01:00 +12°C° 0 mm 1 mps 772 mmHg 52%
    02:00 +12°C° 0 mm 1 mps 772 mmHg 52%
    03:00 +11°C° 0 mm 1 mps 771 mmHg 52%
    04:00 +10°C° 0 mm 2 mps 772 mmHg 55%
    05:00 +9°C° 0 mm 2 mps 772 mmHg 58%
    06:00 +9°C° 0 mm 2 mps 772 mmHg 61%
    07:00 +12°C° 0 mm 2 mps 772 mmHg 57%
    08:00 +12°C° 0 mm 3 mps 772 mmHg 52%
    09:00 +14°C° 0 mm 3 mps 772 mmHg 48%
    10:00 +16°C° 0 mm 3 mps 771 mmHg 45%
    11:00 +18°C° 0 mm 3 mps 771 mmHg 43%
    12:00 +19°C° 0 mm 4 mps 771 mmHg 40%
    13:00 +19°C° 0.1 mm 4 mps 770 mmHg 44%
    14:00 +18°C° 0.1 mm 4 mps 770 mmHg 49%
    15:00 +18°C° 0.1 mm 4 mps 769 mmHg 54%
    16:00 +18°C° 0.4 mm 3 mps 769 mmHg 57%
    17:00 +17°C° 0.4 mm 3 mps 769 mmHg 61%
    18:00 +17°C° 0.4 mm 3 mps 769 mmHg 64%
    19:00 +16°C° 0.2 mm 2 mps 769 mmHg 68%
    20:00 +15°C° 0.2 mm 2 mps 770 mmHg 71%
    21:00 +14°C° 0.2 mm 2 mps 770 mmHg 74%
    22:00 +13°C° 0 mm 2 mps 770 mmHg 76%
    23:00 +12°C° 0 mm 3 mps 770 mmHg 78%

    25 April, Thursday

    Time Temperature Precipitation Wind Pressure Humidity
    00:00 +11°C° 0 mm 3 mps 770 mmHg 80%
    01:00 +11°C° 0 mm 3 mps 770 mmHg 82%
    02:00 +12°C° 0 mm 2 mps 770 mmHg 83%
    03:00 +10°C° 0 mm 2 mps 770 mmHg 85%
    04:00 +10°C° 0 mm 2 mps 770 mmHg 85%
    05:00 +10°C° 0 mm 2 mps 770 mmHg 86%
    06:00 +10°C° 0 mm 2 mps 770 mmHg 86%
    07:00 +13°C° 0 mm 2 mps 770 mmHg 78%
    08:00 +15°C° 0 mm 2 mps 771 mmHg 70%
    09:00 +17°C° 0 mm 2 mps 771 mmHg 62%
    10:00 +18°C° 0 mm 2 mps 771 mmHg 56%
    11:00 +19°C° 0 mm 3 mps 771 mmHg 49%
    12:00 +21°C° 0 mm 3 mps 770 mmHg 43%
    13:00 +21°C° 0 mm 2 mps 770 mmHg 43%
    14:00 +21°C° 0 mm 2 mps 770 mmHg 42%
    15:00 +21°C° 0 mm 2 mps 770 mmHg 42%
    16:00 +22°C° 0 mm 1 mps 770 mmHg 45%
    17:00 +22°C° 0 mm 1 mps 770 mmHg 47%
    18:00 +20°C° 0 mm 0 mps 770 mmHg 49%
    19:00 +18°C° 0 mm 0 mps 770 mmHg 51%
    20:00 +17°C° 0 mm 0 mps 770 mmHg 53%
    21:00 +15°C° 0 mm 0 mps 770 mmHg 55%
    22:00 +15°C° 0 mm 0 mps 770 mmHg 58%
    23:00 +15°C° 0 mm 1 mps 770 mmHg 60%

    26 April, Friday

    Time Temperature Precipitation Wind Pressure Humidity
    00:00 +14°C° 0 mm 1 mps 770 mmHg 62%
    01:00 +14°C° 0 mm 1 mps 770 mmHg 63%
    02:00 +14°C° 0 mm 1 mps 769 mmHg 64%
    03:00 +14°C° 0 mm 1 mps 769 mmHg 65%
    04:00 +14°C° 0 mm 1 mps 769 mmHg 66%
    05:00 +14°C° 0 mm 1 mps 769 mmHg 68%
    06:00 +14°C° 0 mm 1 mps 769 mmHg 69%
    07:00 +15°C° 0 mm 1 mps 769 mmHg 64%
    08:00 +18°C° 0 mm 1 mps 769 mmHg 58%
    09:00 +20°C° 0 mm 1 mps 769 mmHg 53%
    10:00 +22°C° 0 mm 1 mps 769 mmHg 48%
    11:00 +21°C° 0 mm 0 mps 769 mmHg 43%
    12:00 +23°C° 0 mm 0 mps 768 mmHg 39%
    13:00 +22°C° 0 mm 0 mps 768 mmHg 39%
    14:00 +22°C° 0 mm 0 mps 768 mmHg 38%
    15:00 +22°C° 0 mm 0 mps 767 mmHg 38%
    16:00 +22°C° 0 mm 0 mps 767 mmHg 42%
    17:00 +21°C° 0 mm 0 mps 767 mmHg 46%
    18:00 +20°C° 0 mm 0 mps 766 mmHg 50%
    19:00 +19°C° 0 mm 0 mps 766 mmHg 51%
    20:00 +18°C° 0 mm 0 mps 767 mmHg 51%
    21:00 +18°C° 0 mm 0 mps 767 mmHg 52%
    22:00 +17°C° 0 mm 0 mps 766 mmHg 54%
    23:00 +16°C° 0 mm 0 mps 766 mmHg 56%
    Show more